Starlink 30790

operational
NORAD ID: 58127 Int'l Des: 2023-162 Owner: SPXS Country: US Constellation: starlink
LEOCIRCULAR

About Starlink 30790

Description loading...

Live Position

Loading 3D Globe...

Upcoming Passes

Altitude History

Altitude vs Time

uPlot chart will show altitude changes over time

Two-Line Element Set

1 58127U 23162K 25258.59908099 .00000131 00000-0 24757-4 0 9992
2 58127 43.0075 4.3241 0001768 273.9075 86.1565 15.02535122105961
Epoch: Sep 15, 2025 • Age: 10 hours

Current Status

Altitude 561.7 km
Velocity 7.59 km/s
Sub-Earth Point 35.95°N, 54.35°E
Launch Date Oct 22, 2023
Age 1.9 years
Type internet

Technical Details

Classification Payload
Mass 730.00 kg
Dry Mass 700.00 kg
Total Mass 730.00 kg
Length 0.30 m
Diameter 4.10 m
Span 29.00 m
Shape Box + pan
Manufacturer SPXS
Bus Type Starlink V2M
Phase Status In Orbit
Owner/State SPXS/US

Large Constellations

Loading constellations...